Location: C�mpuri de-Sus
(45.9500°N, 22.5500°E)
Time: 13:05:35
(UTC+00:00)

SL-8 R/B - Pass Details

Date: 24 October 2021
Orbit: 656 x 667 km, 48.4° (Epoch: 07 December)

Event Time Altitude Azimuth Distance (km) Brightness Sun altitude
Rises 17:49:13 0° 279° (W) 2,986 8.5 -25.1°
Reaches altitude 10° 17:51:35 10° 282° (WNW) 2,075 7.3 -25.5°
Enters shadow 17:56:02 63° 340° (NNW) 739 3.9 -26.3°
